When you browse on this site, cookies collect data to enhance your experience and personalize the content and advertising you see.
Visit our Privacy Policy to learn more. By continuing to use the site, you agree to this use of cookies and data.
  • In Spain
  • List of Countries
  • For 7 days
  • Water Temperature
  • Weather Map
  • Weather Widgets
  • user-avatar
    Login

    Hourly Weather Wroclaw

    Today, 28 May, Thursday

    Time Temperature Precipitation Wind Pressure Humidity
    00:00 +12°C° 0 mm 1 mps 760 mmHg 77%
    01:00 +12°C° 0 mm 1 mps 759 mmHg 78%
    02:00 +12°C° 0.1 mm 2 mps 759 mmHg 79%
    03:00 +12°C° 0.1 mm 2 mps 759 mmHg 80%
    04:00 +12°C° 0.1 mm 2 mps 759 mmHg 81%
    05:00 +11°C° 0.2 mm 3 mps 758 mmHg 84%
    06:00 +12°C° 0.2 mm 4 mps 758 mmHg 87%
    07:00 +12°C° 0.2 mm 4 mps 758 mmHg 90%
    08:00 +11°C° 0.5 mm 4 mps 758 mmHg 91%
    09:00 +10°C° 0.5 mm 5 mps 758 mmHg 91%
    10:00 +10°C° 0.5 mm 5 mps 758 mmHg 92%
    11:00 +10°C° 0.1 mm 5 mps 758 mmHg 88%
    12:00 +12°C° 0.1 mm 4 mps 758 mmHg 85%
    13:00 +12°C° 0.1 mm 3 mps 758 mmHg 82%
    14:00 +13°C° 0 mm 3 mps 758 mmHg 79%
    15:00 +14°C° 0 mm 3 mps 757 mmHg 75%
    16:00 +14°C° 0 mm 3 mps 757 mmHg 72%
    17:00 +14°C° 0.1 mm 3 mps 757 mmHg 76%
    18:00 +14°C° 0.1 mm 3 mps 758 mmHg 79%
    19:00 +13°C° 0.1 mm 3 mps 758 mmHg 83%
    20:00 +12°C° 0 mm 3 mps 758 mmHg 85%
    21:00 +12°C° 0 mm 3 mps 758 mmHg 88%
    22:00 +11°C° 0 mm 3 mps 759 mmHg 90%
    23:00 +10°C° 0 mm 3 mps 758 mmHg 91%

    Tomorrow, 29 May, Friday

    Time Temperature Precipitation Wind Pressure Humidity
    00:00 +9°C° 0 mm 3 mps 758 mmHg 92%
    01:00 +8°C° 0 mm 3 mps 758 mmHg 93%
    02:00 +7°C° 0 mm 3 mps 759 mmHg 92%
    03:00 +5°C° 0 mm 3 mps 759 mmHg 91%
    04:00 +5°C° 0 mm 3 mps 759 mmHg 91%
    05:00 +6°C° 0 mm 4 mps 759 mmHg 86%
    06:00 +7°C° 0 mm 4 mps 759 mmHg 82%
    07:00 +8°C° 0 mm 4 mps 759 mmHg 77%
    08:00 +11°C° 0 mm 4 mps 759 mmHg 74%
    09:00 +12°C° 0 mm 5 mps 759 mmHg 70%
    10:00 +14°C° 0 mm 5 mps 759 mmHg 67%
    11:00 +14°C° 0 mm 5 mps 758 mmHg 63%
    12:00 +15°C° 0 mm 5 mps 758 mmHg 59%
    13:00 +16°C° 0 mm 6 mps 758 mmHg 56%
    14:00 +15°C° 0 mm 6 mps 757 mmHg 56%
    15:00 +15°C° 0 mm 6 mps 757 mmHg 57%
    16:00 +15°C° 0 mm 6 mps 757 mmHg 58%
    17:00 +14°C° 0 mm 5 mps 757 mmHg 63%
    18:00 +13°C° 0 mm 5 mps 756 mmHg 68%
    19:00 +12°C° 0 mm 4 mps 756 mmHg 72%
    20:00 +10°C° 0 mm 4 mps 756 mmHg 74%
    21:00 +9°C° 0 mm 3 mps 757 mmHg 75%
    22:00 +7°C° 0 mm 3 mps 757 mmHg 76%
    23:00 +7°C° 0 mm 3 mps 757 mmHg 78%

    Day after tomorrow, 30 May, Saturday

    Time Temperature Precipitation Wind Pressure Humidity
    00:00 +5°C° 0 mm 3 mps 757 mmHg 80%
    01:00 +4°C° 0 mm 3 mps 757 mmHg 82%
    02:00 +4°C° 0 mm 3 mps 757 mmHg 82%
    03:00 +5°C° 0 mm 3 mps 756 mmHg 81%
    04:00 +5°C° 0 mm 3 mps 756 mmHg 81%
    05:00 +5°C° 0 mm 4 mps 756 mmHg 80%
    06:00 +6°C° 0 mm 4 mps 756 mmHg 79%
    07:00 +7°C° 0 mm 4 mps 756 mmHg 78%
    08:00 +10°C° 0 mm 4 mps 756 mmHg 75%
    09:00 +11°C° 0 mm 4 mps 756 mmHg 71%
    10:00 +13°C° 0 mm 4 mps 755 mmHg 67%
    11:00 +14°C° 0.1 mm 5 mps 755 mmHg 66%
    12:00 +14°C° 0.1 mm 5 mps 755 mmHg 65%
    13:00 +15°C° 0.1 mm 5 mps 754 mmHg 64%
    14:00 +14°C° 0.5 mm 5 mps 754 mmHg 72%
    15:00 +13°C° 0.5 mm 4 mps 754 mmHg 79%
    16:00 +12°C° 0.5 mm 3 mps 754 mmHg 86%
    17:00 +11°C° 0.3 mm 3 mps 754 mmHg 88%
    18:00 +11°C° 0.3 mm 3 mps 753 mmHg 89%
    19:00 +10°C° 0.3 mm 2 mps 753 mmHg 90%
    20:00 +10°C° 0 mm 3 mps 753 mmHg 90%
    21:00 +10°C° 0 mm 3 mps 753 mmHg 89%
    22:00 +10°C° 0 mm 4 mps 753 mmHg 89%
    23:00 +10°C° 0.3 mm 4 mps 753 mmHg 91%

    31 May, Sunday

    Time Temperature Precipitation Wind Pressure Humidity
    00:00 +9°C° 0.3 mm 5 mps 752 mmHg 93%
    01:00 +8°C° 0.3 mm 5 mps 752 mmHg 94%
    02:00 +9°C° 1.1 mm 5 mps 752 mmHg 95%
    03:00 +9°C° 1.1 mm 5 mps 752 mmHg 96%
    04:00 +9°C° 1.1 mm 5 mps 751 mmHg 97%
    05:00 +9°C° 1.9 mm 6 mps 751 mmHg 97%
    06:00 +9°C° 1.9 mm 6 mps 751 mmHg 97%
    07:00 +9°C° 1.9 mm 6 mps 751 mmHg 97%
    08:00 +10°C° 0.6 mm 5 mps 751 mmHg 95%
    09:00 +10°C° 0.6 mm 5 mps 751 mmHg 93%
    10:00 +12°C° 0.6 mm 5 mps 751 mmHg 92%
    11:00 +13°C° 0 mm 5 mps 751 mmHg 90%
    12:00 +14°C° 0 mm 4 mps 751 mmHg 89%
    13:00 +15°C° 0 mm 4 mps 751 mmHg 88%
    14:00 +15°C° 0.1 mm 4 mps 751 mmHg 87%
    15:00 +15°C° 0.1 mm 4 mps 751 mmHg 87%
    16:00 +17°C° 0.1 mm 4 mps 752 mmHg 87%
    17:00 +17°C° 0 mm 4 mps 752 mmHg 88%
    18:00 +17°C° 0 mm 4 mps 752 mmHg 88%
    19:00 +17°C° 0 mm 3 mps 752 mmHg 89%
    20:00 +16°C° 0.1 mm 3 mps 752 mmHg 91%
    21:00 +16°C° 0.1 mm 3 mps 753 mmHg 92%
    22:00 +14°C° 0.1 mm 4 mps 753 mmHg 94%
    23:00 +14°C° 0.1 mm 3 mps 753 mmHg 94%

    1 June, Monday

    Time Temperature Precipitation Wind Pressure Humidity
    00:00 +14°C° 0.1 mm 3 mps 753 mmHg 95%
    01:00 +13°C° 0.1 mm 3 mps 753 mmHg 95%
    02:00 +13°C° 0 mm 3 mps 753 mmHg 95%
    03:00 +12°C° 0 mm 3 mps 753 mmHg 95%
    04:00 +11°C° 0 mm 3 mps 753 mmHg 96%
    05:00 +12°C° 0 mm 3 mps 754 mmHg 92%
    06:00 +13°C° 0 mm 4 mps 754 mmHg 89%
    07:00 +14°C° 0 mm 4 mps 754 mmHg 85%
    08:00 +17°C° 0 mm 4 mps 754 mmHg 78%
    09:00 +17°C° 0 mm 5 mps 755 mmHg 71%
    10:00 +20°C° 0 mm 6 mps 755 mmHg 64%
    11:00 +20°C° 0 mm 6 mps 755 mmHg 62%
    12:00 +21°C° 0 mm 6 mps 754 mmHg 60%
    13:00 +21°C° 0 mm 6 mps 754 mmHg 59%
    14:00 +21°C° 0 mm 6 mps 754 mmHg 60%
    15:00 +21°C° 0 mm 6 mps 754 mmHg 61%
    16:00 +21°C° 0 mm 5 mps 754 mmHg 62%
    17:00 +19°C° 0 mm 5 mps 754 mmHg 67%
    18:00 +18°C° 0 mm 4 mps 754 mmHg 72%
    19:00 +17°C° 0 mm 3 mps 754 mmHg 78%
    20:00 +16°C° 0 mm 3 mps 754 mmHg 80%
    21:00 +14°C° 0 mm 3 mps 755 mmHg 82%
    22:00 +13°C° 0 mm 3 mps 755 mmHg 84%
    23:00 +13°C° 0 mm 3 mps 755 mmHg 87%

    2 June, Tuesday

    Time Temperature Precipitation Wind Pressure Humidity
    00:00 +12°C° 0 mm 3 mps 755 mmHg 89%
    01:00 +11°C° 0 mm 3 mps 755 mmHg 91%
    02:00 +12°C° 0 mm 2 mps 755 mmHg 92%
    03:00 +10°C° 0 mm 2 mps 754 mmHg 93%
    04:00 +10°C° 0 mm 2 mps 754 mmHg 94%
    05:00 +12°C° 0 mm 3 mps 754 mmHg 89%
    06:00 +13°C° 0 mm 3 mps 755 mmHg 85%
    07:00 +15°C° 0 mm 4 mps 755 mmHg 80%
    08:00 +17°C° 0.1 mm 4 mps 755 mmHg 74%
    09:00 +19°C° 0.1 mm 5 mps 755 mmHg 69%
    10:00 +20°C° 0.1 mm 5 mps 755 mmHg 64%
    11:00 +20°C° 0.1 mm 5 mps 754 mmHg 63%
    12:00 +20°C° 0.1 mm 5 mps 754 mmHg 63%
    13:00 +20°C° 0.1 mm 5 mps 754 mmHg 62%
    14:00 +20°C° 0 mm 5 mps 754 mmHg 63%
    15:00 +21°C° 0 mm 5 mps 753 mmHg 63%
    16:00 +21°C° 0 mm 5 mps 753 mmHg 64%
    17:00 +20°C° 0 mm 4 mps 753 mmHg 68%
    18:00 +19°C° 0 mm 4 mps 753 mmHg 73%
    19:00 +18°C° 0 mm 3 mps 753 mmHg 78%
    20:00 +17°C° 0 mm 3 mps 753 mmHg 81%
    21:00 +14°C° 0 mm 3 mps 753 mmHg 83%
    22:00 +13°C° 0 mm 3 mps 753 mmHg 86%
    23:00 +13°C° 0 mm 3 mps 753 mmHg 88%
    Show more